Content
SEND FEEDBACK

Daily
Averages
Monthly
Summary
Croatia

SIBENIK, CROATIA


Home > Europe > Croatia
Elevation: 246 feet     Latitude: 43 44N     Longitude: 015 55E

WEATHER
 
SELECT A DAY
Number of Records: 296,509;   Date Range: 1/10/97 - 12/17/14
 
SHARE

PRINT THIS DATA

[ ← Previous Day ]
WEATHER ALMANAC - FEBRUARY 13, 2013
[ Next Day → ]
[ °C ]   °F
Weather ElementAverageHighLow
Temperature46.8 °F51.8 °F (2:00 pm)42.8 °F (12:30 am)
Dewpoint40.7 °F45 °F (1:00 pm)35 °F (7:00 pm)
Humidity78.5 %93 % (12:30 am)53 % (7:00 pm)
Barometer29.69 in29.80 in (11:30 pm)29.62 in (2:30 pm)
Wind Speed10.1 mph19.6 mph (10:30 pm)
Wind Gust31.1 mph (10:30 pm)
Weather ElementAverage
Visibility6.7 mi
Wind DirectionNE (46.4 °)

Weather ElementTotal
Precipitation---
Heating Degree Days17.7 (Base 65)
Averaged from 55 records on February 13, 2013
WEATHER CONDITIONS BREAKOUT
WIND DIRECTION BREAKOUT
WEATHER BY HOUR - FEBRUARY 13, 2013
[ °C ]   °F
Local TimeTemperatureDewpointHumidityBarometerVisibilityWind DirectionWind SpeedGust SpeedPrecipitationEventsConditions
12:30 AM42.8 °F41.0 °F93 %29.71 in6.2 miNorth (10°)5.8 mphRainLight Rain
1:00 AM43.0 °F41.0 °F88 %29.73 in6.0 miNNE (20°)6.7 mphRainLight Rain
1:00 AM42.8 °F41.0 °F93 %29.71 in6.2 miNNE (20°)6.9 mphRainLight Rain
1:30 AM42.8 °F41.0 °F93 %29.71 in6.2 miNorth (10°)5.8 mphRainRain
2:00 AM42.8 °F41.0 °F93 %29.71 in6.2 miNNE (20°)5.8 mphRainLight Rain
2:30 AM44.6 °F41.0 °F87 %29.71 in6.2 miNNE (30°)9.2 mphRainLight Rain
3:00 AM44.6 °F41.0 °F87 %29.68 in6.2 miENE (60°)10.4 mphRainLight Rain
3:30 AM44.6 °F41.0 °F87 %29.68 in6.2 miEast (80°)9.2 mphRainLight Rain
4:00 AM45.0 °F41.0 °F82 %29.69 in6.0 miNNE (20°)4.5 mphRainLight Rain
4:00 AM44.6 °F41.0 °F87 %29.68 in6.2 miNNE (20°)4.6 mphRainLight Rain
4:30 AM44.6 °F41.0 °F87 %29.68 in6.2 miNNE (20°)8.1 mphRainRain
5:00 AM42.8 °F41.0 °F93 %29.68 in6.2 miNorth (10°)6.9 mphRainRain
5:30 AM44.6 °F41.0 °F87 %29.68 in6.2 miNNE (30°)6.9 mphRainRain
6:00 AM44.6 °F42.8 °F93 %29.68 in6.2 miNE (50°)8.1 mphRainLight Rain
6:30 AM44.6 °F41.0 °F87 %29.68 in6.2 miNE (50°)6.9 mphMostly Cloudy
7:00 AM47.0 °F42.0 °F78 %29.68 in12.0 miENE (60°)8.9 mphRainLight Rain
7:00 AM46.4 °F42.8 °F87 %29.68 in6.2 miENE (60°)9.2 mphMostly Cloudy
7:30 AM48.2 °F42.8 °F82 %29.68 in6.2 miENE (60°)8.1 mphRainLight Rain
8:00 AM50.0 °F42.8 °F76 %29.68 in6.2 miENE (70°)12.7 mphMostly Cloudy
8:30 AM50.0 °F42.8 °F76 %29.68 in6.2 miENE (70°)10.4 mphMostly Cloudy
9:00 AM48.2 °F42.8 °F82 %29.68 in6.2 miEast (80°)9.2 mphRainRain
9:30 AM48.2 °F42.8 °F82 %29.68 in6.2 miEast (80°)12.7 mphRainRain
10:00 AM47.0 °F42.0 °F78 %29.70 in12.0 miENE (60°)13.4 mphRainLight Rain
10:00 AM46.4 °F42.8 °F87 %29.68 in6.2 miENE (60°)12.7 mphRainLight Rain
10:30 AM48.2 °F42.8 °F82 %29.68 in6.2 miNE (50°)4.6 mphScattered Clouds
11:00 AM50.0 °F44.6 °F82 %29.68 in6.2 miEast (90°)9.2 mphScattered Clouds
11:30 AM50.0 °F42.8 °F76 %29.68 in6.2 miVariable3.5 mphScattered Clouds
12:00 PM50.0 °F42.8 °F76 %29.68 in6.2 miESE (110°)8.1 mphRainRain
12:30 PM50.0 °F44.6 °F82 %29.68 in6.2 miENE (70°)5.8 mphScattered Clouds
1:00 PM50.0 °F45.0 °F75 %29.67 in12.0 miNorth (10°)2.2 mphRainLight Rain
1:00 PM50.0 °F44.6 °F82 %29.65 in6.2 miVariable3.5 mphRainLight Rain
1:30 PM50.0 °F44.6 °F82 %29.65 in6.2 miVariable2.3 mphScattered Clouds
2:00 PM51.8 °F44.6 °F76 %29.65 in6.2 miVariable2.3 mphPartly Cloudy
2:30 PM51.8 °F44.6 °F76 %29.62 in6.2 miCalmPartly Cloudy
3:00 PM51.8 °F44.6 °F76 %29.65 in6.2 miCalmScattered Clouds
3:30 PM50.0 °F39.2 °F66 %29.65 in6.2 miENE (60°)11.5 mphPartly Cloudy
4:00 PM49.0 °F38.0 °F55 %29.67 in12.0 miENE (60°)15.7 mphRainLight Rain
4:00 PM50.0 °F37.4 °F62 %29.65 in6.2 miENE (60°)15.0 mphRainLight Rain
4:30 PM46.4 °F37.4 °F71 %29.68 in6.2 miNE (40°)12.7 mphRainLight Rain
5:00 PM46.4 °F37.4 °F71 %29.68 in6.2 miNE (50°)11.5 mphRainLight Rain
5:30 PM44.6 °F37.4 °F76 %29.68 in6.2 miENE (60°)11.5 mphMostly Cloudy
6:00 PM44.6 °F35.6 °F71 %29.68 in6.2 miNE (50°)18.4 mphScattered Clouds
6:30 PM46.4 °F35.6 °F66 %29.68 in6.2 miENE (60°)13.8 mphScattered Clouds
7:00 PM47.0 °F35.0 °F53 %29.71 in12.0 miENE (60°)17.9 mphRainLight Rain
7:00 PM46.4 °F35.6 °F66 %29.71 in6.2 miENE (60°)17.3 mphScattered Clouds
7:30 PM46.4 °F35.6 °F66 %29.71 in6.2 miNE (50°)12.7 mphMostly Cloudy
8:00 PM46.4 °F35.6 °F66 %29.71 in6.2 miNE (40°)15.0 mphMostly Cloudy
8:30 PM46.4 °F35.6 °F66 %29.74 in6.2 miNE (50°)16.1 mphRainLight Rain
9:00 PM44.6 °F37.4 °F76 %29.74 in6.2 miENE (60°)16.1 mph27.6 mphRainLight Rain
9:30 PM44.6 °F37.4 °F76 %29.74 in6.2 miENE (60°)16.1 mph27.6 mphRainLight Rain
10:00 PM46.0 °F38.0 °F67 %29.77 in7.0 miENE (60°)15.7 mphRainLight Rain
10:00 PM46.4 °F39.2 °F76 %29.77 in6.2 miENE (60°)16.1 mphRainLight Rain
10:30 PM46.4 °F39.2 °F76 %29.77 in6.2 miENE (60°)19.6 mph31.1 mphRainLight Rain
11:00 PM46.4 °F41.0 °F81 %29.77 in6.2 miENE (70°)19.6 mph31.1 mphMostly Cloudy
11:30 PM48.2 °F42.8 °F82 %29.80 in6.2 miEast (100°)19.6 mphRainLight Rain
Hourly data recorded from LDSP, located miles away from Sibenik, Croatia







STORIES FROM OUR PARTNERS